Flag for U.S.A. Weather past 2 weeks in Grand Prairie, Texas, U.S.A.

Now
75 °F

Mostly cloudy.


Feels Like: 74 °F
Forecast: 74 / 84 °F
Wind: 7 mph from East

Location: Grand Prairie Municipal Airport

Current Time: Sep 18, 2014 at 9:37:24 AM

Latest Report: Sep 18, 2014 at 8:50 AM


Visibility: 10 mi

Pressure: 29.94 "Hg

Humidity: 94%

Dew point: 73 °F

Location of Grand PrairieLocation

Historic Weather in Grand Prairie — Graph

°F

Grand Prairie temperature yesterday

Maximum temperature yesterday: 93 °F (at 3:50 PM)
Minimum temperature yesterday: 73 °F (at 6:35 AM)
Average temperature yesterday: 80 °F

Past Weeks' High & Low Weather Summary

 TemperatureHumidityPressure
High100 °F (Sep 10, 3:50 PM)100% (Sep 12, 10:35 PM)30.30 "Hg (Sep 12, 10:35 PM)
Low34 °F (Sep 13, 4:50 PM)14% (Sep 3, 10:50 AM)29.75 "Hg (Sep 10, 4:50 PM)
Average79 °F66%30.03 "Hg
* Reported Sep 3 7:50 AM — Sep 18 7:50 AM, Grand Prairie, Weather by CustomWeather, © 2014

Note: Actual official high and low records may vary slightly from our data, if they occured in-between our weather recording intervals... More about our weather records

Advertising

Grand Prairie weather history for previous 24 hours

 ConditionsComfort  
Time TempWeatherWind HumidityBarometerVisibility
7:50 AM
Sep 18
75 °FOvercast.7 mph94%29.90 "Hg10 mi
6:50 AM73 °FClear.7 mph100%29.89 "Hg10 mi
6:35 AM74 °FClear.5 mph94%29.89 "Hg10 mi
6:15 AM74 °FClear.No wind93%29.89 "Hg10 mi
5:55 AM74 °FClear.3 mph93%29.90 "Hg10 mi
5:35 AM74 °FClear.3 mph95%29.90 "Hg10 mi
5:15 AM74 °FClear.No wind94%29.90 "Hg10 mi
4:55 AM74 °FClear.No wind95%29.89 "Hg10 mi
4:35 AM73 °FClear.No wind95%29.90 "Hg10 mi
4:15 AM74 °FClear.No wind93%29.90 "Hg10 mi
3:55 AM74 °FClear.No wind89%29.91 "Hg10 mi
3:35 AM74 °FClear.No wind84%29.91 "Hg10 mi
3:15 AM75 °FClear.No wind83%29.91 "Hg10 mi
2:55 AM75 °FClear.No wind81%29.90 "Hg10 mi
2:35 AM76 °FClear.6 mph80%29.90 "Hg10 mi
2:15 AM76 °FClear.6 mph80%29.91 "Hg10 mi
1:55 AM76 °FClear.5 mph80%29.91 "Hg10 mi
1:35 AM77 °FClear.3 mph81%29.91 "Hg10 mi
1:15 AM77 °FClear.6 mph81%29.91 "Hg10 mi
12:55 AM77 °FClear.8 mph80%29.91 "Hg10 mi
12:35 AM77 °FClear.7 mph79%29.93 "Hg10 mi
12:15 AM78 °FClear.8 mph79%29.93 "Hg10 mi
11:55 PM
Sep 17
78 °FClear.8 mph76%29.93 "Hg10 mi
11:35 PM79 °FPassing clouds.6 mph73%29.93 "Hg10 mi
11:15 PM80 °FPassing clouds.8 mph71%29.93 "Hg10 mi
10:55 PM81 °FPassing clouds.8 mph70%29.93 "Hg10 mi
10:35 PM82 °FClear.6 mph67%29.92 "Hg10 mi
10:15 PM81 °FClear.No wind71%29.91 "Hg10 mi
9:55 PM81 °FClear.No wind72%29.90 "Hg10 mi
9:15 PM81 °FClear.3 mph72%29.90 "Hg10 mi
8:55 PM81 °FClear.No wind70%29.90 "Hg10 mi
8:15 PM82 °FSunny.No wind63%29.90 "Hg10 mi
6:50 PM84 °FSunny.5 mph51%29.88 "Hg10 mi
5:50 PM82 °FSunny.3 mph58%29.88 "Hg10 mi
4:50 PM84 °FScattered clouds.16 mph55%29.88 "Hg10 mi
3:50 PM93 °FSunny.10 mph39%29.87 "Hg10 mi
2:50 PM91 °FScattered clouds.5 mph41%29.90 "Hg10 mi
1:50 PM91 °FSunny.5 mph41%29.93 "Hg10 mi
12:50 PM90 °FSunny.No wind46%29.96 "Hg10 mi
11:50 AM86 °FSunny.No wind55%29.98 "Hg10 mi
10:50 AM81 °FSunny.No wind70%29.99 "Hg10 mi
9:50 AM79 °FSunny.5 mph74%30.00 "Hg10 mi
Weather by CustomWeather, © 2014

See weather overviewHow to use our weather pages